[[{"header":{"parameterUnit":"m.s-1","parameterCategory":1,"la1":30.2991,"la2":30.254,"lo1":-89.0895,"lo2":-89.0444,"dy":0.0017,"dx":0.0017,"nx":28,"ny":28,"refTime":"2025-04-21T03:00:00:Z","depth":0,"parameterNumber":2,"parameterNumberName":"U-component_of_WINDS"},"data":[0,0,0,0,0,0,0,0,0,0,0,0,0,0,0,0,0,0,0,0,0,0,0,0,0,0,0,0,0,0,0,0,0,0,0,0,0,0,0,0,0,0,0,0,0,0,0,0,0,0,0,0,0,0,0,0,0,0,-2.1388,-2.1388,0,-2.1463,-2.1464,-2.1465,-2.147,-2.1469,-2.1469,-2.1468,-2.1546,-2.1549,-2.1552,0,0,0,0,0,0,0,0,0,0,0,0,0,-2.125,-2.1253,-2.1388,-2.1388,-2.1389,-2.1463,-2.1464,-2.1465,-2.147,-2.1469,-2.1468,-2.1467,-2.1545,-2.1548,-2.1552,0,0,0,0,0,0,0,0,0,0,0,0,0,-2.1316,-2.1254,-2.1387,-2.1401,-2.1403,-2.1463,-2.1464,-2.1465,-2.1471,-2.1469,-2.1468,-2.1467,-2.1544,-2.1548,-2.1552,-2.1604,0,0,-2.1565,-2.1567,0,0,0,0,0,0,0,0,-2.1313,-2.1321,-2.1398,-2.14,-2.1402,-2.1456,-2.1444,-2.1512,-2.1471,-2.1445,-2.1468,-2.1466,-2.1517,-2.1523,-2.154,-2.1607,-2.1611,-2.1566,-2.1568,-2.157,-2.1571,0,0,0,0,0,0,0,-2.1308,-2.1318,-2.1417,-2.1399,-2.1402,-2.1404,-2.1412,-2.1457,-2.1487,-2.1447,-2.1448,-2.1457,-2.1518,-2.1536,-2.1542,-2.1612,-2.1566,-2.1569,-2.1572,-2.1574,-2.1726,-2.1727,0,0,0,0,0,0,-2.1301,-2.1314,-2.1415,-2.142,-2.1353,-2.1407,-2.1416,-2.144,-2.1487,-2.1493,-2.1457,-2.1456,-2.153,-2.1537,-2.1545,-2.1609,-2.157,-2.1574,-2.1577,-2.1725,-2.1726,-2.1728,0,0,0,0,0,0,-2.1298,-2.131,-2.1412,-2.1367,-2.138,-2.1411,-2.1438,-2.1442,-2.146,-2.1494,-2.15,-2.147,-2.1529,-2.1539,-2.1589,-2.1611,-2.1576,-2.158,-2.1723,-2.1725,-2.1727,-2.1736,0,0,0,0,0,0,-2.1294,-2.1308,-2.1328,-2.1368,-2.1383,-2.1454,-2.1439,-2.1445,-2.1468,-2.1467,-2.1508,-2.1514,-2.1529,-2.1583,-2.1594,-2.1617,-2.1583,-2.1721,-2.1724,-2.1726,-2.1734,-2.1738,-2.1742,0,0,0,0,0,-2.1289,-2.1327,-2.1329,-2.1341,-2.1407,-2.1456,-2.1464,-2.148,-2.1469,-2.1489,-2.1512,-2.1512,-2.1608,-2.1588,-2.16,-2.1625,-2.172,-2.1723,-2.1726,-2.1732,-2.1737,-2.1742,0,0,0,0,0,0,-2.1289,-2.1333,-2.1335,-2.1387,-2.1418,-2.1456,-2.1482,-2.1485,-2.152,-2.1518,-2.1537,-2.1546,-2.1596,-2.1616,-2.1593,-2.1678,-2.1662,-2.1668,-2.1662,-2.1668,-2.1672,-2.1666,-2.1587,0,0,0,0,0,-2.1295,-2.133,-2.1367,-2.1409,-2.1425,-2.1451,-2.1472,-2.1482,-2.1515,-2.1528,-2.1553,-2.1585,-2.1623,-2.1646,-2.1683,-2.1737,-2.1746,-2.176,-2.1764,-2.1767,-2.1772,-2.1803,-2.1809,-2.1739,-2.1739,-2.1739,0,0,-2.1308,-2.1336,-2.1357,-2.141,-2.1435,-2.1471,-2.1461,-2.15,-2.1527,-2.1534,-2.1582,-2.1603,-2.164,-2.1692,-2.1717,-2.171,-2.1794,-2.1772,-2.1774,-2.1777,-2.1807,-2.1813,-2.1819,-2.1741,-2.1741,-2.174,0,0,-2.135,-2.1375,-2.1414,-2.1439,-2.1477,-2.1494,-2.1503,-2.1542,-2.1556,-2.1605,-2.1611,-2.1644,-2.1707,-2.1734,-2.1755,-2.1809,-2.1811,-2.1821,-2.1841,-2.1871,-2.1876,-2.1881,-2.19,-2.1907,-2.1825,-2.1825,-2.1825,0,-2.1362,-2.1416,-2.1433,-2.1472,-2.1495,-2.1503,-2.1542,-2.1566,-2.1614,-2.163,-2.1622,-2.1702,-2.1728,-2.1787,-2.18,-2.1818,-2.1829,-2.1815,-2.1874,-2.1879,-2.1884,-2.1903,-2.191,-2.1826,-2.1826,-2.1826,-2.1826,0,-2.1428,-2.1466,-2.1493,-2.1538,-2.1565,-2.1604,-2.1627,-2.1652,-2.1661,-2.1679,-2.173,-2.1761,-2.1804,-2.1819,-2.1827,-2.1879,-2.1874,-2.187,-2.1855,-2.1891,-2.1909,-2.1916,-2.1827,-2.1827,-2.1827,-2.1826,0,0,-2.1471,-2.1527,-2.1536,-2.1557,-2.16,-2.163,-2.167,-2.1711,-2.1732,-2.1766,-2.18,-2.1854,-2.1851,-2.1876,-2.1887,-2.1913,-2.1954,-2.1906,-2.1908,-2.1914,-2.2014,-2.2016,-2.2024,-2.1956,-2.1958,-2.1959,-2.2011,0,-2.1518,-2.1588,-2.1605,-2.1665,-2.17,-2.1709,-2.1744,-2.1775,-2.1793,-2.1827,-2.1848,-2.1886,-2.1879,-2.1894,-2.192,-2.1943,-2.1974,-2.194,-2.1988,-2.199,-2.1978,-2.2033,-2.2035,-2.2082,-2.2018,-2.2019,-2.202,0,-2.1581,-2.1615,-2.1679,-2.1718,-2.1733,-2.1764,-2.1804,-2.1836,-2.1871,-2.1883,-2.1911,-2.1921,-2.1963,-2.1947,-2.2006,-2.1983,-2.2004,-2.2019,-2.2021,-2.2025,-2.2006,-2.2038,-2.2097,-2.2104,-2.2031,-2.203,-2.2029,0,-2.1605,-2.1668,-2.1714,-2.1732,-2.1778,-2.18,-2.1821,-2.1855,-2.1879,-2.1914,-2.193,-2.197,-2.1992,-2.2023,-2.2044,-2.203,-2.2101,-2.2087,-2.2112,-2.2112,-2.2126,-2.2125,-2.2189,-2.2141,-2.2141,-2.2141,-2.2141,0,-2.1655,-2.1693,-2.1725,-2.1754,-2.1797,-2.1818,-2.1861,-2.1882,-2.1912,-2.1945,-2.1956,-2.1987,-2.2012,-2.2047,-2.2063,-2.211,-2.212,-2.2131,-2.2135,-2.213,-2.2128,-2.2143,-2.214,-2.2143,-2.2142,-2.2142,-2.2142,0,-2.1688,-2.1712,-2.1763,-2.1803,-2.1814,-2.1845,-2.1879,-2.1908,-2.1927,-2.1969,-2.198,-2.2011,-2.2053,-2.2077,-2.2129,-2.214,-2.2192,-2.2195,-2.218,-2.2181,-2.2205,-2.2202,-2.228,-2.2291,-2.2237,-2.2237,-2.2238,0,-2.1718,-2.1748,-2.1792,-2.1814,-2.1835,-2.1872,-2.1897,-2.1918,-2.1944,-2.1987,-2.201,-2.2052,-2.2087,-2.2153,-2.2181,-2.2221,-2.2224,-2.2249,-2.223,-2.2224,-2.2224,-2.2222,-2.2225,-2.2252,-2.2252,-2.2253,-2.2253,0,-2.1768,-2.1778,-2.1813,-2.1853,-2.1882,-2.1914,-2.1946,-2.1965,-2.1992,-2.202,-2.2062,-2.2089,-2.2143,-2.2185,-2.2228,-2.225,-2.2256,-2.2259,-2.2267,-2.2261,-2.2251,-2.2256,-2.2187,-2.2257,-2.2256,-2.2256,-2.2256,-2.2256,-2.18,-2.1827,-2.1862,-2.1901,-2.1928,-2.1958,-2.1986,-2.201,-2.2045,-2.209,-2.2102,-2.2146,-2.2182,-2.224,-2.2263,-2.2299,-2.2295,-2.2306,-2.2309,-2.2312,-2.2312,-2.2246,-2.2307,-2.2307,-2.2307,-2.2307,-2.2307,0,-2.185,-2.1874,-2.1909,-2.1954,-2.1985,-2.1988,-2.2024,-2.205,-2.2089,-2.2121,-2.2156,-2.2205,-2.2246,-2.2277,-2.2319,-2.2342,-2.2346,-2.2352,-2.235,-2.2355,-2.2314,-2.2302,-2.2348,-2.2348,-2.2348,-2.2348,-2.2348,-2.2348,-2.188,-2.1926,-2.194,-2.2,-2.2023,-2.2067,-2.2087,-2.2115,-2.2141,-2.2195,-2.2229,-2.225,-2.2282,-2.2327,-2.2365,-2.2373,-2.2388,-2.2394,-2.2402,-2.2363,-2.2358,-2.2354,-2.2343,-2.2397,-2.2397,-2.2441,-2.2441,-2.2441]},{"header":{"parameterUnit":"m.s-1","parameterCategory":1,"la1":30.2991,"la2":30.254,"lo1":-89.0895,"lo2":-89.0444,"dy":0.0017,"dx":0.0017,"nx":28,"ny":28,"refTime":"2025-04-21T03:00:00:Z","depth":0,"parameterNumber":3,"parameterNumberName":"V-component_of_WINDS"},"data":[0,0,0,0,0,0,0,0,0,0,0,0,0,0,0,0,0,0,0,0,0,0,0,0,0,0,0,0,0,0,0,0,0,0,0,0,0,0,0,0,0,0,0,0,0,0,0,0,0,0,0,0,0,0,0,0,0,0,3.0015,3.0016,0,3.0059,3.006,3.006,3.0044,3.0043,3.0042,3.0041,3.0082,3.0084,3.0086,0,0,0,0,0,0,0,0,0,0,0,0,0,2.9915,2.9917,3.0015,3.0016,3.0017,3.0059,3.006,3.006,3.0044,3.0043,3.0041,3.004,3.0082,3.0084,3.0087,0,0,0,0,0,0,0,0,0,0,0,0,0,2.9959,2.9918,3.0015,3.0013,3.0014,3.0059,3.006,3.0061,3.0044,3.0042,3.0041,3.004,3.0081,3.0084,3.0087,3.0136,0,0,3.0096,3.0098,0,0,0,0,0,0,0,0,2.9956,2.9962,3.0013,3.0014,3.0014,3.0045,3.004,3.0086,3.0044,3.0032,3.0041,3.0039,3.0071,3.0075,3.0086,3.0138,3.014,3.0097,3.0098,3.01,3.0101,0,0,0,0,0,0,0,2.9953,2.996,3.0033,3.0014,3.0014,3.001,3.0014,3.0048,3.0059,3.0033,3.0032,3.0038,3.0071,3.0083,3.0087,3.014,3.0097,3.0099,3.0101,3.0102,3.0236,3.0237,0,0,0,0,0,0,2.995,2.9958,3.0031,3.0034,2.9981,3.0013,3.0018,3.0036,3.0059,3.0061,3.0039,3.0037,3.0079,3.0083,3.0088,3.0148,3.01,3.0103,3.0104,3.0234,3.0236,3.0238,0,0,0,0,0,0,2.9948,2.9957,3.003,2.9996,3.0005,3.0016,3.0037,3.0038,3.005,3.0063,3.0065,3.005,3.0078,3.0084,3.0125,3.0149,3.0104,3.0107,3.0232,3.0235,3.0237,3.0267,0,0,0,0,0,0,2.9946,2.9957,2.9976,2.9996,3.0007,3.0066,3.0038,3.004,3.0056,3.0054,3.0074,3.0076,3.0077,3.012,3.0128,3.0153,3.0109,3.023,3.0233,3.0236,3.0264,3.0271,3.0276,0,0,0,0,0,2.9942,2.9981,2.9977,2.9986,3.0031,3.0067,3.0073,3.0074,3.0058,3.0077,3.0086,3.0075,3.0145,3.0125,3.0133,3.0159,3.0228,3.0232,3.0236,3.0262,3.0269,3.0276,0,0,0,0,0,0,2.9962,2.9984,2.9979,3.0026,3.0045,3.0064,3.0088,3.0082,3.0105,3.0102,3.0102,3.0107,3.0149,3.0158,3.0134,3.0208,3.0184,3.019,3.0201,3.0208,3.0214,3.0211,3.0112,0,0,0,0,0,2.9972,3.0,3.0018,3.0058,3.0068,3.0077,3.0093,3.0092,3.0111,3.0119,3.013,3.0149,3.0175,3.0192,3.0217,3.0266,3.027,3.0288,3.0294,3.0298,3.0303,3.0331,3.0339,3.0251,3.0251,3.025,0,0,2.9992,3.0008,3.0026,3.0063,3.0077,3.0106,3.0084,3.0115,3.0137,3.0123,3.0163,3.0172,3.0193,3.0238,3.0258,3.0247,3.0329,3.0303,3.0307,3.0309,3.0336,3.0344,3.0351,3.0253,3.0253,3.0252,0,0,3.0045,3.006,3.0096,3.0111,3.0134,3.014,3.0149,3.0169,3.0175,3.0216,3.0207,3.0232,3.0277,3.0292,3.0306,3.0366,3.0357,3.0374,3.0405,3.0432,3.0439,3.0445,3.0467,3.0475,3.0379,3.0379,3.0379,0,3.0067,3.0112,3.0114,3.0147,3.0164,3.0155,3.0191,3.0206,3.0235,3.0246,3.0233,3.0291,3.0303,3.0353,3.0368,3.0379,3.0389,3.0372,3.0438,3.0444,3.045,3.0471,3.0479,3.0381,3.0381,3.038,3.038,0,3.0139,3.017,3.0196,3.0227,3.0246,3.028,3.0287,3.0306,3.0305,3.0312,3.0353,3.0369,3.0397,3.0409,3.0407,3.0458,3.045,3.0438,3.0414,3.046,3.048,3.0488,3.0384,3.0383,3.0382,3.0382,0,0,3.0204,3.0237,3.0247,3.0261,3.0286,3.031,3.0344,3.0373,3.039,3.0411,3.0439,3.0479,3.0467,3.0483,3.0483,3.0506,3.0554,3.049,3.0491,3.0502,3.0612,3.0622,3.0632,3.0549,3.055,3.0551,3.0611,0,3.026,3.0321,3.0324,3.0379,3.0409,3.0401,3.0431,3.0449,3.0457,3.0483,3.0491,3.0519,3.0502,3.0511,3.0534,3.0543,3.0576,3.0539,3.0575,3.0576,3.057,3.0642,3.0652,3.0708,3.0619,3.062,3.0621,0,3.0332,3.0357,3.0416,3.0439,3.0451,3.0478,3.0505,3.053,3.0551,3.0555,3.0573,3.057,3.0604,3.0579,3.0627,3.0602,3.0617,3.0624,3.0626,3.063,3.0601,3.0648,3.0725,3.0734,3.0633,3.0632,3.0631,0,3.0375,3.0423,3.0465,3.0477,3.0504,3.0524,3.0535,3.0555,3.0573,3.0597,3.0608,3.0635,3.065,3.0671,3.0675,3.0657,3.0724,3.0699,3.0728,3.0728,3.0742,3.0741,3.0824,3.0751,3.0751,3.0751,3.0751,0,3.0437,3.0473,3.0485,3.051,3.0551,3.0554,3.0594,3.0605,3.0623,3.065,3.0644,3.067,3.0674,3.07,3.0703,3.0743,3.0749,3.0754,3.0754,3.0754,3.0754,3.0764,3.0761,3.0753,3.0753,3.0752,3.0752,0,3.0491,3.0501,3.0546,3.0569,3.0575,3.0604,3.0623,3.0648,3.0655,3.069,3.0698,3.071,3.0741,3.0747,3.0783,3.0786,3.0833,3.0829,3.0826,3.0826,3.0855,3.0853,3.0948,3.096,3.0879,3.088,3.0881,0,3.053,3.0558,3.0585,3.0603,3.0617,3.0646,3.0665,3.067,3.0689,3.0716,3.0737,3.0768,3.0793,3.0843,3.0854,3.0882,3.0879,3.091,3.0883,3.0883,3.088,3.0879,3.0882,3.0916,3.0917,3.0917,3.0918,0,3.0599,3.0602,3.063,3.066,3.0683,3.0706,3.0728,3.0743,3.0751,3.0773,3.0805,3.0825,3.0863,3.0893,3.0921,3.0933,3.0927,3.0926,3.0935,3.0936,3.0933,3.0936,3.0841,3.0924,3.0924,3.0923,3.0923,3.0922,3.0647,3.0672,3.0695,3.0726,3.0744,3.0765,3.079,3.0801,3.0829,3.0861,3.0862,3.0897,3.0918,3.0956,3.0969,3.0997,3.0987,3.0999,3.1002,3.1005,3.1008,3.0929,3.1002,3.1002,3.1001,3.1001,3.1001,0,3.0716,3.0731,3.076,3.0792,3.0816,3.081,3.0834,3.0855,3.0887,3.0907,3.0933,3.097,3.1,3.1014,3.1044,3.1063,3.1061,3.1071,3.107,3.1073,3.1015,3.1005,3.1072,3.1072,3.1072,3.1072,3.1072,3.1072,3.0755,3.0797,3.0804,3.0855,3.0869,3.0905,3.092,3.0939,3.0956,3.0999,3.1024,3.1034,3.1052,3.1083,3.111,3.1114,3.1125,3.1136,3.1138,3.1084,3.1077,3.107,3.1061,3.1139,3.1139,3.1194,3.1195,3.1195]}]]